Вернуться в каталог

STARLINK-4146

АктивенСвязьVLEO
NORAD 53294·PAYLOAD·🇺🇸 United States

Запущен Jul 24, 2022 с Cape Canaveral Space Force Station

Loading…

Ближайшие Пролёты (ближайшие 24 часа)

TLE

СвежийSource: CelesTrak SupGP

Эпоха: Sep 15, 2026, 02:21 UTC

1 53294C 22086BE  26258.09840278 -.00012967  00000+0 -37104-3 0  2584
2 53294  53.1597  31.8767 0001230  85.9395 322.3907 15.35400337    10

Отслеживайте STARLINK-4146 в реальном времени с AllMySat

Download on the App Store